SCP
0 0 0 -0 0 0 0 0 0 0 0 0 0 -0 -0 -0 -0 -0 -0 -0 -0 -0 -0 0 0 0 0 0 0 -0 0 0 0 0 0 0 0 0 0 0 0 0 0 0 0 0 0 0 0 0 0 0 0 0
0 0 -0 0 0 0 0 0 0 -0 0 0 0 0 -0 -0 -0 -0 0 -0 -0 -0 0 -0 -0 -0 -0 -0 -0 0 -0 0 0 0 0 0 0 0 0 0 0 0 0 0 0 0 0 0 0 0 0 0 0 0
0 0 0 0 0 0 0 0 0 -0 0 0 0 0 0 0 -0 -0 -0 0 -0 -0 -0 -0 -0 -0 -0 -0 -0 -0 0 0 0 -0 0 0 0 0 0 0 0 0 0 0 0 0 0 0 0 0 0 0 0 0
0 0 0 0 0 0 0 -0 0 0 0 0 0 0 0 0 -0 -0 -0 -0 -0 -0 -0 -0 0 0 0 0 -0 -0 0 0 0 -0 -0 0 0 0 0 0 0 0 0 0 0 0 0 0 0 0 0 0 0 0
0 0 0 0 0 -0 0 0 0 0 0 0 0 0 0 0 0 0 -0 0 -0 -0 0 0 -0 -0 0 0 0 0 0 0 -0 0 0 0 0 0 -0 -0 0 0 0 0 0 0 0 0 0 0 0 0 0 0
0 0 0 0 0 0 0 0 0 -0 0 0 0 0 0 0 0 0 0 -0 -0 0 0 0 -0 0 0 0 0 0 0 0 0 0 0 0 0 0 0 0 0 0 0 0 0 0 0 0 0 0 0 0 0 0
0 0 0 0 0 0 0 0 0 -0 0 0 0 0 0 0 0 0 0 0 -0 -0 0 0 0 0 0 0 0 0 0 0 0 0 0 0 0 0 0 0 0 0 0 0 0 0 0 0 0 0 0 0 0 0
0 0 0 0 0 0 0 0 0 -0 0 0 0 0 -0 -0 0 0 0 0 0 -0 -0 0 0 0 0 0 0 0 0 0 0 0 0 0 0 0 0 0 0 0 0 0 0 0 0 0 0 0 0 0 0 0
0 0 0 0 0 0 0 0 0 0 0 0 0 -0 -0 -0 0 0 0 0 -0 0 0 0 0 0 0 0 0 0 0 0 0 0 0 0 0 0 0 0 0 0 0 0 0 0 0 0 0 0 0 0 0 0
0 0 0 0 0 0 0 0 -0 0 -0 0 0 -0 -0 0 0 0 0 0 0 0 0 0 0 0 0 0 0 0 0 0 0 0 0 0 0 0 0 0 0 0 0 0 0 0 0 0 0 0 0 0 0 0
0 0 0 0 0 0 0 0 -0 -0 -0 0 0 0 0 0 -0 0 0 0 0 0 0 0 0 0 0 0 0 0 0 0 0 0 0 0 0 0 0 0 0 0 0 0 0 0 0 0 0 0 0 0 0 0
0 0 0 -0 -0 -0 -0 -0 0 -0 0 0 0 0 0 -0 0 0 0 0 0 0 0 0 0 0 0 0 0 0 0 0 0 0 0 0 0 0 0 0 0 0 0 0 -0 0 0 0 0 0 0 0 0 0
-0 -0 -0 -0 -0 -0 0 0 0 -0 0 0 -0 -0 0 0 0 0 0 0 0 0 0 0 0 0 0 0 0 0 0 0 0 0 0 0 0 0 0 0 0 0 0 0 0 0 0 0 0 0 0 0 0 0
0 -0 -0 -0 -0 0 -0 -0 0 0 0 -0 0 0 0 0 0 0 0 0 0 0 0 0 0 0 0 0 0 0 0 0 0 0 0 0 0 0 0 0 0 0 0 0 0 0 0 0 0 0 0 0 0 0
0 0 0 0 0 -0 -0 -0 0 0 0 0 0 0 0 -0 0 0 0 0 0 0 0 0 0 0 0 0 0 0 0 0 0 0 0 0 0 0 0 0 0 0 0 0 0 0 0 0 0 0 0 0 0 0
0 0 0 0 0 0 0 0 0 0 0 0 0 0 0 0 0 0 0 0 0 0 0 0 0 0 0 0 0 0 0 0 0 0 0 0 0 0 0 0 0 0 0 0 0 0 0 0 0 0 0 0 0 0
0 0 0 0 0 0 -0 0 0 0 0 0 -0 -0 -0 0 0 -0 -0 0 0 0 0 0 0 0 0 0 0 0 0 0 0 0 0 0 0 0 0 0 0 0 0 0 0 0 0 0 0 0 0 0 0 0
0 0 0 0 -0 0 0 0 0 0 0 0 0 -0 -0 -0 -0 -0 -0 0 0 0 0 0 0 0 0 0 0 0 -0 0 0 0 0 0 0 0 0 0 0 0 0 0 0 0 0 0 0 0 0 0 0 0
0 0 0 0 0 0 0 0 0 0 0 0 -0 -0 -0 -0 -0 -0 -0 0 0 0 0 0 0 0 0 0 0 0 -0 0 0 0 0 0 0 0 0 0 0 0 0 0 0 0 0 0 0 0 -0 0 0 0
0 0 0 -0 0 0 0 0 0 -0 0 0 -0 -0 0 0 -0 0 0 0 0 0 0 0 0 0 0 0 0 -0 -0 0 0 0 0 0 0 0 0 0 0 0 0 0 0 0 0 0 0 -0 -0 -0 0 -0
0 0 0 0 0 0 0 0 -0 0 0 -0 -0 0 -0 0 0 0 0 0 0 0 0 0 0 0 0 0 0 0 0 0 0 0 0 0 0 0 0 0 0 0 0 0 0 0 0 0 0 -0 -0 0 0 -0
0 -0 0 0 -0 -0 0 -0 0 -0 0 -0 -0 0 -0 -0 0 0 0 0 0 0 0 0 0 0 0 0 0 0 0 0 0 0 0 0 0 0 0 0 0 0 0 -0 0 0 0 0 0 -0 0 -0 0 0
0 -0 0 -0 0 -0 0 0 0 0 0 0 0 0 0 0 0 0 0 0 0 0 0 0 0 0 0 0 0 0 0 0 0 0 0 0 0 0 0 0 0 0 0 0 0 0 0 -0 0 -0 -0 -0 -0 -0
0 0 -0 0 -0 0 0 0 0 0 -0 -0 0 0 0 0 0 0 0 0 0 0 0 0 0 0 0 0 0 0 0 0 0 0 0 0 0 0 0 0 0 0 0 0 0 0 0 0 0 0 0 0 0 0
0 0 0 0 0 0 0 0 -0 0 -0 -0 -0 0 0 0 0 0 0 0 0 0 0 0 -0 -0 -0 0 0 0 0 0 0 0 0 0 0 0 0 0 -0 -0 0 0 0 0 0 0 0 0 -0 -0 -0 0
0 0 0 0 0 0 0 0 0 -0 -0 -0 0 0 0 0 0 0 0 0 0 0 0 0 -0 0 0 0 0 0 0 0 0 0 0 0 0 0 0 0 0 0 0 0 0 0 0 0 0 0 0 0 0 0
0 0 0 0 0 0 0 0 0 -0 -0 0 0 0 0 0 0 0 0 0 0 0 0 0 0 0 0 0 0 0 0 0 0 0 0 0 0 -0 -0 -0 0 0 0 0 0 0 0 0 0 0 0 0 0 0
0 0 0 0 0 0 -0 -0 -0 -0 -0 0 0 0 0 0 0 0 0 0 0 0 0 0 0 0 0 0 0 0 0 0 0 0 0 0 0 0 -0 -0 0 -0 -0 -0 -0 0 0 0 0 0 0 0 -0 -0
0 0 0 0 0 0 -0 -0 -0 -0 0 0 0 0 0 0 0 -0 0 0 0 0 0 0 0 0 0 0 0 0 0 0 0 0 0 0 0 0 0 0 0 0 0 0 -0 -0 -0 -0 -0 -0 0 0 0 0
0 0 0 0 -0 -0 -0 -0 0 0 0 0 0 0 0 0 0 0 0 0 0 0 0 0 0 0 0 0 0 0 0 0 0 0 0 0 0 0 0 0 0 0 0 0 0 0 0 0 0 0 0 0 0 0
0 0 0 -0 -0 -0 -0 0 -0 0 0 0 0 0 0 0 0 0 0 0 0 0 0 0 0 0 0 0 0 0 0 0 0 0 -0 0 0 0 0 0 0 0 0 0 0 0 0 0 0 0 0 0 0 0
0 0 -0 -0 -0 0 0 -0 0 0 0 0 0 0 0 0 0 0 0 0 0 0 0 0 0 0 0 0 0 0 0 0 0 0 0 0 0 0 0 0 0 0 0 0 0 0 0 0 0 0 0 0 0 0
0 0 0 -0 -0 0 0 0 0 0 0 0 0 0 0 0 0 0 0 0 0 0 0 0 0 0 0 -0 -0 0 0 0 0 0 -0 -0 0 0 0 0 0 0 0 0 0 0 0 0 0 0 0 0 0 0
Wind_Speed_500mb
38 29 28 33 34 23 18 19 17 16 15 14 8 9 9 7 2 6 7 2 2 10 11 10 7 6 8 10 7 19 10 11 13 5 5 5 6 6 4 11 11 8 7 8 17 19 20 26 13 13 22 27 25 17
31 32 35 36 34 23 19 19 17 15 14 11 6 5 8 6 4 6 2 10 3 9 11 9 12 12 6 2 4 8 13 2 11 5 2 6 5 7 11 5 13 8 6 4 8 6 11 12 4 17 14 18 14 15
34 36 36 34 27 21 20 19 17 14 14 9 3 3 4 4 3 2 2 7 4 11 15 14 18 21 17 11 6 16 4 4 7 10 3 5 4 9 7 11 12 14 12 6 5 14 14 23 15 15 11 12 13 13
39 35 34 30 23 21 22 19 17 12 11 9 4 4 4 5 5 2 0 8 2 8 14 15 9 7 16 17 14 7 1 2 4 10 15 3 2 8 12 8 9 17 14 15 20 20 10 25 25 20 16 16 17 15
37 34 34 26 21 23 25 20 16 11 10 7 5 6 7 8 7 5 4 4 1 6 13 13 7 11 8 12 16 17 11 7 7 9 9 4 6 7 19 19 18 23 21 16 13 14 24 25 36 32 27 25 22 19
34 33 30 23 19 25 28 21 17 12 10 6 5 7 9 9 4 1 10 5 4 5 10 7 10 7 10 15 15 19 18 17 12 15 3 9 4 7 7 5 26 32 29 32 32 31 19 17 14 30 31 28 25 22
28 26 26 22 23 28 29 23 21 14 12 8 7 9 10 9 6 12 5 9 7 2 10 8 14 13 10 12 16 18 18 16 16 5 17 15 9 13 3 8 25 31 28 35 37 25 22 20 20 25 32 28 25 22
22 19 18 20 24 26 28 23 20 14 10 9 8 9 9 5 5 3 9 10 6 7 9 6 6 15 22 17 12 15 17 16 15 22 6 5 12 9 9 24 27 31 32 30 25 28 27 25 24 28 29 29 27 26
21 20 20 22 26 23 20 25 16 11 7 6 7 5 2 4 5 8 16 9 11 7 11 7 6 5 17 15 7 10 10 9 9 9 9 11 7 10 19 24 31 36 29 30 30 23 32 22 26 30 30 31 30 29
11 12 16 18 18 18 29 22 12 4 6 6 4 2 8 8 11 5 5 7 5 9 14 14 3 3 13 9 10 12 11 8 6 7 14 6 7 31 29 25 25 17 15 21 30 39 39 36 33 30 31 31 33 35
5 10 14 16 25 35 30 20 9 10 8 4 5 3 4 6 2 5 6 8 9 10 14 15 12 7 6 6 6 11 6 5 5 8 6 4 7 18 6 14 13 13 21 17 18 14 23 24 37 39 40 38 39 38
36 35 34 31 28 23 16 7 4 6 6 12 8 6 4 6 6 7 6 7 9 7 13 18 12 15 8 7 8 9 4 6 5 11 4 4 10 17 7 16 12 12 20 27 23 24 27 39 39 37 42 42 43 43
20 18 17 15 12 9 6 5 8 9 9 6 2 6 7 6 6 9 12 8 8 10 16 16 13 10 8 12 7 6 7 3 2 5 5 9 12 8 6 14 12 12 18 27 31 33 33 37 43 46 46 44 42 40
4 6 6 5 5 4 4 4 3 2 3 6 9 5 10 11 12 13 9 1 10 4 10 11 10 11 11 9 6 7 5 5 3 5 10 6 9 4 8 13 13 16 18 19 20 22 25 29 34 37 41 47 46 49
3 3 5 4 1 4 10 15 12 5 3 8 8 7 14 23 23 6 1 5 9 12 4 7 5 11 10 6 3 3 5 3 8 14 6 5 2 3 9 12 15 16 17 16 11 17 24 27 30 34 37 40 42 52
7 8 5 6 3 7 8 5 10 5 7 9 12 15 21 18 19 19 25 22 14 17 4 6 7 7 11 9 11 7 3 9 5 7 8 11 11 10 8 11 12 15 18 23 26 25 25 28 28 29 30 32 35 40
5 4 6 8 5 4 6 2 5 9 10 10 15 22 24 23 21 22 19 17 5 10 7 3 5 7 9 6 6 3 8 10 24 15 20 12 5 6 9 11 14 20 21 21 22 21 22 20 20 26 32 32 35 37
6 5 7 9 8 10 10 8 8 10 14 22 22 24 19 20 20 22 17 7 7 6 5 2 5 8 5 10 7 13 28 12 8 10 10 3 3 5 10 14 14 16 18 18 19 22 23 20 23 30 37 44 38 34
7 3 5 6 5 3 6 8 10 11 21 23 22 26 27 24 21 21 21 10 7 5 3 7 7 6 6 14 20 21 18 11 10 8 7 5 6 7 10 8 9 13 15 16 20 23 29 22 19 26 34 27 12 24
4 6 9 7 11 5 8 9 11 12 14 13 16 22 23 24 17 21 21 12 10 7 6 6 9 13 17 17 20 11 17 10 10 7 8 9 2 6 6 10 12 15 20 13 13 16 26 26 12 24 29 25 25 36
2 4 5 6 7 13 10 10 14 15 19 28 23 15 19 17 9 18 10 13 9 4 11 11 13 15 15 8 9 2 1 9 15 14 12 3 6 4 5 6 13 18 20 24 22 22 16 16 14 22 23 25 19 12
7 5 3 10 8 9 13 17 15 18 16 26 26 22 24 10 11 9 7 6 2 6 10 10 5 8 15 12 11 10 8 7 7 7 8 6 5 6 9 11 13 19 22 24 22 19 18 24 20 23 23 26 20 19
11 8 5 8 8 9 14 13 16 18 10 9 8 7 3 6 4 4 3 6 6 11 10 6 12 17 17 15 17 14 8 6 7 8 10 8 9 7 7 8 12 15 13 16 16 15 14 16 14 13 10 9 13 15
10 5 7 8 14 10 8 9 14 16 14 12 7 7 3 8 8 3 5 4 12 18 18 25 15 17 16 14 12 8 7 7 8 10 10 9 9 8 7 9 11 11 10 10 8 9 9 9 11 11 13 11 11 11
7 8 10 12 9 9 10 13 17 10 10 16 16 2 3 3 2 4 5 11 14 17 21 19 19 19 20 15 9 8 11 7 10 11 8 9 10 11 9 8 8 9 8 8 11 10 9 7 9 10 11 14 13 14
8 13 13 11 14 11 8 5 7 9 8 8 8 8 10 10 6 4 6 15 23 21 17 20 26 21 11 11 13 13 11 11 13 13 10 7 7 7 8 7 7 7 6 7 7 8 8 8 7 10 11 9 13 11
8 13 20 18 17 13 11 16 20 14 9 4 4 3 4 3 2 5 12 17 16 17 15 13 15 16 18 19 16 15 14 13 10 12 12 9 10 9 3 2 5 6 4 5 5 7 7 6 8 9 9 9 10 10
20 11 16 21 22 20 18 18 19 8 2 3 8 2 2 2 4 4 13 16 17 19 18 17 16 19 21 20 20 18 15 14 17 15 12 9 9 8 6 6 7 16 6 6 5 3 3 4 5 6 8 11 12 11
18 19 19 19 19 16 14 12 13 5 4 5 7 3 3 7 11 14 18 20 21 21 21 22 22 22 22 21 19 17 16 16 16 14 11 11 12 11 11 8 6 7 6 3 4 3 4 3 4 5 6 6 7 8
25 25 22 17 16 11 20 13 9 4 7 12 6 3 10 15 13 16 21 23 23 22 21 22 23 23 23 22 20 18 16 15 12 8 8 10 12 14 14 13 11 10 9 7 4 2 10 4 2 1 6 3 4 7
11 12 18 24 24 24 21 13 11 13 12 9 5 4 10 14 13 16 19 22 22 21 23 24 22 22 21 20 19 18 18 17 16 13 8 8 12 16 16 14 12 11 10 8 5 4 3 2 2 4 3 3 4 7
23 25 25 18 22 13 9 16 13 9 9 8 11 16 18 15 17 18 21 23 25 25 24 22 24 22 21 19 17 16 17 16 19 20 16 15 16 17 18 15 14 11 9 6 5 3 3 3 3 5 2 2 4 8
23 22 22 24 24 19 14 11 8 5 12 12 15 18 22 19 9 10 11 20 20 20 23 25 26 20 18 22 18 17 20 16 22 28 30 28 24 23 19 16 15 13 11 8 7 7 5 5 7 8 7 6 7 8
Wind_Direction_500mb
299 286 289 295 293 274 285 285 286 299 320 314 310 330 343 4 0 127 261 330 41 295 143 206 181 186 168 235 258 117 196 194 196 217 191 131 263 190 250 282 287 249 197 239 245 240 231 129 141 233 91 133 142 148
288 288 293 290 287 267 263 274 276 290 308 304 288 312 340 354 30 106 239 312 221 250 38 206 218 222 232 336 9 179 360 335 16 198 209 161 255 206 225 263 192 266 235 245 250 357 85 159 333 129 152 151 154 156
287 289 288 287 278 251 250 269 272 287 303 296 259 309 324 0 7 170 227 294 301 260 214 214 222 232 219 223 240 294 176 55 200 302 279 217 200 190 237 244 244 211 225 216 257 252 201 187 165 172 184 178 166 159
290 286 283 277 256 234 235 256 260 273 289 284 234 268 305 331 342 339 222 280 257 286 280 137 199 194 218 225 229 240 109 113 135 243 264 321 331 307 270 256 229 253 172 234 240 249 218 217 212 202 194 182 178 175
283 280 277 266 240 227 225 240 239 251 265 260 249 263 289 306 312 301 276 208 21 293 324 81 181 219 218 214 221 216 207 197 248 258 276 295 345 293 291 283 274 238 230 230 248 273 223 242 216 215 203 198 196 196
280 276 273 261 229 224 227 233 222 223 241 242 260 276 295 315 297 154 202 228 266 318 266 217 108 155 203 204 205 207 220 225 253 275 306 286 291 283 290 256 250 257 272 256 256 257 248 242 210 203 199 199 202 205
282 274 261 248 220 223 224 236 208 213 222 241 279 300 295 303 232 235 6 160 295 190 238 231 171 167 169 175 196 217 216 235 243 239 233 244 204 171 232 252 278 288 280 276 247 231 213 212 206 200 201 201 206 212
282 276 272 247 217 222 224 232 185 204 218 253 295 310 312 293 137 191 250 274 284 218 245 259 130 170 188 203 170 217 197 208 231 240 241 178 155 196 247 253 269 286 288 260 251 212 220 211 207 199 201 202 210 215
268 253 246 243 220 217 216 177 169 195 220 271 301 314 93 145 217 222 277 288 191 234 291 229 288 124 181 231 142 203 227 217 230 222 213 189 165 221 236 275 297 299 270 236 234 241 224 220 211 208 208 211 221 227
265 240 231 214 201 195 159 141 134 197 255 273 259 242 191 213 225 286 358 164 213 227 227 250 250 210 205 172 178 182 195 223 221 180 168 220 247 248 261 284 312 292 226 225 218 226 224 223 223 221 223 228 233 236
93 121 138 144 138 133 129 130 190 249 262 195 206 243 259 189 339 241 233 216 189 233 210 218 216 226 202 224 209 213 241 260 255 163 221 220 259 220 242 299 302 282 225 228 219 227 215 223 233 235 237 238 241 243
94 103 112 119 122 123 141 171 243 190 199 205 201 177 193 231 219 250 223 178 218 243 174 204 193 217 180 216 198 208 249 222 247 140 191 235 241 226 291 311 302 263 229 232 251 248 237 230 240 247 250 242 240 235
96 106 113 117 123 127 124 104 90 106 132 154 199 210 215 200 223 231 202 207 220 191 192 185 193 192 202 210 201 216 236 273 358 200 208 231 152 223 311 315 305 265 244 259 264 267 261 256 252 259 255 258 255 235
121 136 155 157 157 190 227 220 190 160 88 232 202 240 227 190 229 228 217 312 218 235 137 198 220 205 208 202 206 229 161 259 295 234 238 283 121 257 322 311 290 282 290 294 292 279 276 276 275 274 265 258 257 253
242 241 221 199 225 302 256 232 227 232 255 250 229 241 225 249 282 263 94 270 287 267 169 241 223 200 204 229 187 157 191 243 248 233 25 51 199 10 345 317 306 299 291 293 314 308 310 303 294 285 273 270 263 255
261 218 208 172 111 53 55 154 202 208 252 241 236 251 250 266 260 237 211 232 243 258 209 245 248 236 211 164 167 164 212 230 259 79 10 55 18 29 356 324 315 314 311 308 307 303 299 297 295 295 292 283 273 269
225 210 194 208 238 327 4 105 208 231 244 237 237 235 260 284 288 289 286 278 270 266 267 215 259 335 60 36 45 140 230 264 302 21 45 51 50 1 345 337 330 322 321 319 314 311 302 300 308 301 303 299 290 267
190 190 201 224 270 322 301 215 237 245 241 245 255 261 257 256 274 278 274 233 273 256 251 276 75 57 111 167 203 235 251 287 334 12 71 59 38 31 349 342 341 338 335 331 327 318 306 303 307 309 302 293 277 249
183 166 198 215 255 300 251 234 220 260 240 260 263 262 260 264 260 267 277 262 180 254 192 108 114 172 208 216 226 234 296 325 66 144 104 74 19 2 342 344 337 0 343 334 330 332 341 339 342 334 331 316 245 199
238 259 294 259 234 226 247 229 224 261 270 304 258 264 260 260 261 253 234 180 177 171 155 166 192 217 211 183 205 248 315 12 331 177 181 156 341 203 56 345 348 322 327 343 343 336 337 341 7 29 50 87 118 114
308 214 219 232 221 228 265 256 233 252 275 272 267 259 263 257 241 249 220 177 188 205 173 207 203 179 190 198 245 147 28 331 345 338 350 47 49 13 14 352 344 357 352 357 346 337 6 21 65 66 71 65 103 119
258 223 208 246 231 237 255 237 255 307 277 263 281 267 265 239 217 225 182 135 180 147 162 166 235 197 172 178 144 130 122 69 36 61 119 131 139 85 41 16 22 34 21 20 57 66 75 62 95 93 76 72 52 58
245 257 238 241 246 237 263 239 252 247 240 269 249 249 149 261 88 154 64 95 140 157 158 136 106 125 132 135 127 125 124 130 119 115 127 104 103 90 71 53 43 61 51 60 59 63 63 84 65 67 80 87 81 83
199 221 236 233 214 252 254 235 232 246 250 264 250 264 174 167 186 176 82 65 103 136 151 137 126 139 140 152 157 143 142 135 129 135 136 130 113 100 89 79 59 53 73 65 71 63 82 65 46 51 46 52 39 41
232 231 213 239 241 249 232 241 237 238 256 259 250 337 196 213 226 135 138 156 158 157 162 159 160 194 193 135 140 151 153 165 144 141 140 132 121 130 119 83 55 40 63 63 82 77 63 55 43 39 26 17 19 20
230 210 202 225 205 209 249 277 24 277 275 313 30 34 33 39 14 218 143 158 165 168 179 195 202 178 159 163 155 153 151 149 147 144 146 155 167 171 148 142 134 85 50 57 52 52 55 41 33 24 31 38 30 13
244 233 212 237 274 297 282 275 288 296 292 12 54 273 133 163 213 82 125 160 161 180 179 173 168 168 158 151 144 142 140 144 147 159 158 153 156 153 201 159 111 115 87 66 69 69 61 49 35 28 31 21 10 15
235 262 247 238 225 243 250 274 284 266 243 19 318 272 263 152 93 168 142 159 155 155 157 158 159 159 158 157 152 145 137 134 135 137 142 150 158 173 162 154 175 161 132 155 104 64 61 45 30 37 38 34 34 31
236 231 236 255 259 256 257 249 250 281 67 323 298 204 183 111 159 142 150 154 154 155 157 156 153 156 156 159 159 159 155 147 141 154 182 169 178 180 178 178 151 139 142 119 209 98 193 76 106 78 52 39 37 47
238 236 238 242 249 242 242 248 289 305 277 303 300 159 159 143 134 156 161 165 167 168 168 169 170 171 171 173 175 180 186 187 188 185 198 204 189 190 183 184 185 180 174 164 151 99 54 166 344 350 358 347 23 21
237 227 237 243 256 249 249 265 258 256 259 252 242 181 185 151 166 177 182 183 183 184 181 181 185 191 188 190 192 194 203 207 208 211 194 188 182 180 181 182 183 183 184 191 197 232 274 321 318 338 6 49 49 22
226 231 237 245 255 209 246 256 258 243 232 237 228 204 181 190 182 177 195 197 200 205 208 211 204 205 213 213 210 212 215 210 208 204 198 185 189 186 186 181 183 186 188 192 199 235 257 272 294 309 296 275 341 356
215 226 224 245 262 255 230 230 248 227 214 218 222 203 195 197 158 154 181 198 210 223 227 222 215 215 217 220 220 217 212 210 210 203 200 195 193 191 186 194 198 201 204 208 219 237 265 283 286 285 271 270 298 323
Wind_Speed_850mb
38 29 28 33 34 23 18 19 17 16 15 14 8 9 9 7 2 6 7 2 2 10 11 10 7 6 8 10 7 19 10 11 13 5 5 5 6 6 4 11 11 8 7 8 17 19 20 26 13 13 22 27 25 17
31 32 35 36 34 23 19 19 17 15 14 11 6 5 8 6 4 6 2 10 3 9 11 9 12 12 6 2 4 8 13 2 11 5 2 6 5 7 11 5 13 8 6 4 8 6 11 12 4 17 14 18 14 15
34 36 36 34 27 21 20 19 17 14 14 9 3 3 4 4 3 2 2 7 4 11 15 14 18 21 17 11 6 16 4 4 7 10 3 5 4 9 7 11 12 14 12 6 5 14 14 23 15 15 11 12 13 13
39 35 34 30 23 21 22 19 17 12 11 9 4 4 4 5 5 2 0 8 2 8 14 15 9 7 16 17 14 7 1 2 4 10 15 3 2 8 12 8 9 17 14 15 20 20 10 25 25 20 16 16 17 15
37 34 34 26 21 23 25 20 16 11 10 7 5 6 7 8 7 5 4 4 1 6 13 13 7 11 8 12 16 17 11 7 7 9 9 4 6 7 19 19 18 23 21 16 13 14 24 25 36 32 27 25 22 19
34 33 30 23 19 25 28 21 17 12 10 6 5 7 9 9 4 1 10 5 4 5 10 7 10 7 10 15 15 19 18 17 12 15 3 9 4 7 7 5 26 32 29 32 32 31 19 17 14 30 31 28 25 22
28 26 26 22 23 28 29 23 21 14 12 8 7 9 10 9 6 12 5 9 7 2 10 8 14 13 10 12 16 18 18 16 16 5 17 15 9 13 3 8 25 31 28 35 37 25 22 20 20 25 32 28 25 22
22 19 18 20 24 26 28 23 20 14 10 9 8 9 9 5 5 3 9 10 6 7 9 6 6 15 22 17 12 15 17 16 15 22 6 5 12 9 9 24 27 31 32 30 25 28 27 25 24 28 29 29 27 26
21 20 20 22 26 23 20 25 16 11 7 6 7 5 2 4 5 8 16 9 11 7 11 7 6 5 17 15 7 10 10 9 9 9 9 11 7 10 19 24 31 36 29 30 30 23 32 22 26 30 30 31 30 29
11 12 16 18 18 18 29 22 12 4 6 6 4 2 8 8 11 5 5 7 5 9 14 14 3 3 13 9 10 12 11 8 6 7 14 6 7 31 29 25 25 17 15 21 30 39 39 36 33 30 31 31 33 35
5 10 14 16 25 35 30 20 9 10 8 4 5 3 4 6 2 5 6 8 9 10 14 15 12 7 6 6 6 11 6 5 5 8 6 4 7 18 6 14 13 13 21 17 18 14 23 24 37 39 40 38 39 38
36 35 34 31 28 23 16 7 4 6 6 12 8 6 4 6 6 7 6 7 9 7 13 18 12 15 8 7 8 9 4 6 5 11 4 4 10 17 7 16 12 12 20 27 23 24 27 39 39 37 42 42 43 43
20 18 17 15 12 9 6 5 8 9 9 6 2 6 7 6 6 9 12 8 8 10 16 16 13 10 8 12 7 6 7 3 2 5 5 9 12 8 6 14 12 12 18 27 31 33 33 37 43 46 46 44 42 40
4 6 6 5 5 4 4 4 3 2 3 6 9 5 10 11 12 13 9 1 10 4 10 11 10 11 11 9 6 7 5 5 3 5 10 6 9 4 8 13 13 16 18 19 20 22 25 29 34 37 41 47 46 49
3 3 5 4 1 4 10 15 12 5 3 8 8 7 14 23 23 6 1 5 9 12 4 7 5 11 10 6 3 3 5 3 8 14 6 5 2 3 9 12 15 16 17 16 11 17 24 27 30 34 37 40 42 52
7 8 5 6 3 7 8 5 10 5 7 9 12 15 21 18 19 19 25 22 14 17 4 6 7 7 11 9 11 7 3 9 5 7 8 11 11 10 8 11 12 15 18 23 26 25 25 28 28 29 30 32 35 40
5 4 6 8 5 4 6 2 5 9 10 10 15 22 24 23 21 22 19 17 5 10 7 3 5 7 9 6 6 3 8 10 24 15 20 12 5 6 9 11 14 20 21 21 22 21 22 20 20 26 32 32 35 37
6 5 7 9 8 10 10 8 8 10 14 22 22 24 19 20 20 22 17 7 7 6 5 2 5 8 5 10 7 13 28 12 8 10 10 3 3 5 10 14 14 16 18 18 19 22 23 20 23 30 37 44 38 34
7 3 5 6 5 3 6 8 10 11 21 23 22 26 27 24 21 21 21 10 7 5 3 7 7 6 6 14 20 21 18 11 10 8 7 5 6 7 10 8 9 13 15 16 20 23 29 22 19 26 34 27 12 24
4 6 9 7 11 5 8 9 11 12 14 13 16 22 23 24 17 21 21 12 10 7 6 6 9 13 17 17 20 11 17 10 10 7 8 9 2 6 6 10 12 15 20 13 13 16 26 26 12 24 29 25 25 36
2 4 5 6 7 13 10 10 14 15 19 28 23 15 19 17 9 18 10 13 9 4 11 11 13 15 15 8 9 2 1 9 15 14 12 3 6 4 5 6 13 18 20 24 22 22 16 16 14 22 23 25 19 12
7 5 3 10 8 9 13 17 15 18 16 26 26 22 24 10 11 9 7 6 2 6 10 10 5 8 15 12 11 10 8 7 7 7 8 6 5 6 9 11 13 19 22 24 22 19 18 24 20 23 23 26 20 19
11 8 5 8 8 9 14 13 16 18 10 9 8 7 3 6 4 4 3 6 6 11 10 6 12 17 17 15 17 14 8 6 7 8 10 8 9 7 7 8 12 15 13 16 16 15 14 16 14 13 10 9 13 15
10 5 7 8 14 10 8 9 14 16 14 12 7 7 3 8 8 3 5 4 12 18 18 25 15 17 16 14 12 8 7 7 8 10 10 9 9 8 7 9 11 11 10 10 8 9 9 9 11 11 13 11 11 11
7 8 10 12 9 9 10 13 17 10 10 16 16 2 3 3 2 4 5 11 14 17 21 19 19 19 20 15 9 8 11 7 10 11 8 9 10 11 9 8 8 9 8 8 11 10 9 7 9 10 11 14 13 14
8 13 13 11 14 11 8 5 7 9 8 8 8 8 10 10 6 4 6 15 23 21 17 20 26 21 11 11 13 13 11 11 13 13 10 7 7 7 8 7 7 7 6 7 7 8 8 8 7 10 11 9 13 11
8 13 20 18 17 13 11 16 20 14 9 4 4 3 4 3 2 5 12 17 16 17 15 13 15 16 18 19 16 15 14 13 10 12 12 9 10 9 3 2 5 6 4 5 5 7 7 6 8 9 9 9 10 10
20 11 16 21 22 20 18 18 19 8 2 3 8 2 2 2 4 4 13 16 17 19 18 17 16 19 21 20 20 18 15 14 17 15 12 9 9 8 6 6 7 16 6 6 5 3 3 4 5 6 8 11 12 11
18 19 19 19 19 16 14 12 13 5 4 5 7 3 3 7 11 14 18 20 21 21 21 22 22 22 22 21 19 17 16 16 16 14 11 11 12 11 11 8 6 7 6 3 4 3 4 3 4 5 6 6 7 8
25 25 22 17 16 11 20 13 9 4 7 12 6 3 10 15 13 16 21 23 23 22 21 22 23 23 23 22 20 18 16 15 12 8 8 10 12 14 14 13 11 10 9 7 4 2 10 4 2 1 6 3 4 7
11 12 18 24 24 24 21 13 11 13 12 9 5 4 10 14 13 16 19 22 22 21 23 24 22 22 21 20 19 18 18 17 16 13 8 8 12 16 16 14 12 11 10 8 5 4 3 2 2 4 3 3 4 7
23 25 25 18 22 13 9 16 13 9 9 8 11 16 18 15 17 18 21 23 25 25 24 22 24 22 21 19 17 16 17 16 19 20 16 15 16 17 18 15 14 11 9 6 5 3 3 3 3 5 2 2 4 8
23 22 22 24 24 19 14 11 8 5 12 12 15 18 22 19 9 10 11 20 20 20 23 25 26 20 18 22 18 17 20 16 22 28 30 28 24 23 19 16 15 13 11 8 7 7 5 5 7 8 7 6 7 8
Wind_Direction_850mb
299 286 289 295 293 274 285 285 286 299 320 314 310 330 343 4 0 127 261 330 41 295 143 206 181 186 168 235 258 117 196 194 196 217 191 131 263 190 250 282 287 249 197 239 245 240 231 129 141 233 91 133 142 148
288 288 293 290 287 267 263 274 276 290 308 304 288 312 340 354 30 106 239 312 221 250 38 206 218 222 232 336 9 179 360 335 16 198 209 161 255 206 225 263 192 266 235 245 250 357 85 159 333 129 152 151 154 156
287 289 288 287 278 251 250 269 272 287 303 296 259 309 324 0 7 170 227 294 301 260 214 214 222 232 219 223 240 294 176 55 200 302 279 217 200 190 237 244 244 211 225 216 257 252 201 187 165 172 184 178 166 159
290 286 283 277 256 234 235 256 260 273 289 284 234 268 305 331 342 339 222 280 257 286 280 137 199 194 218 225 229 240 109 113 135 243 264 321 331 307 270 256 229 253 172 234 240 249 218 217 212 202 194 182 178 175
283 280 277 266 240 227 225 240 239 251 265 260 249 263 289 306 312 301 276 208 21 293 324 81 181 219 218 214 221 216 207 197 248 258 276 295 345 293 291 283 274 238 230 230 248 273 223 242 216 215 203 198 196 196
280 276 273 261 229 224 227 233 222 223 241 242 260 276 295 315 297 154 202 228 266 318 266 217 108 155 203 204 205 207 220 225 253 275 306 286 291 283 290 256 250 257 272 256 256 257 248 242 210 203 199 199 202 205
282 274 261 248 220 223 224 236 208 213 222 241 279 300 295 303 232 235 6 160 295 190 238 231 171 167 169 175 196 217 216 235 243 239 233 244 204 171 232 252 278 288 280 276 247 231 213 212 206 200 201 201 206 212
282 276 272 247 217 222 224 232 185 204 218 253 295 310 312 293 137 191 250 274 284 218 245 259 130 170 188 203 170 217 197 208 231 240 241 178 155 196 247 253 269 286 288 260 251 212 220 211 207 199 201 202 210 215
268 253 246 243 220 217 216 177 169 195 220 271 301 314 93 145 217 222 277 288 191 234 291 229 288 124 181 231 142 203 227 217 230 222 213 189 165 221 236 275 297 299 270 236 234 241 224 220 211 208 208 211 221 227
265 240 231 214 201 195 159 141 134 197 255 273 259 242 191 213 225 286 358 164 213 227 227 250 250 210 205 172 178 182 195 223 221 180 168 220 247 248 261 284 312 292 226 225 218 226 224 223 223 221 223 228 233 236
93 121 138 144 138 133 129 130 190 249 262 195 206 243 259 189 339 241 233 216 189 233 210 218 216 226 202 224 209 213 241 260 255 163 221 220 259 220 242 299 302 282 225 228 219 227 215 223 233 235 237 238 241 243
94 103 112 119 122 123 141 171 243 190 199 205 201 177 193 231 219 250 223 178 218 243 174 204 193 217 180 216 198 208 249 222 247 140 191 235 241 226 291 311 302 263 229 232 251 248 237 230 240 247 250 242 240 235
96 106 113 117 123 127 124 104 90 106 132 154 199 210 215 200 223 231 202 207 220 191 192 185 193 192 202 210 201 216 236 273 358 200 208 231 152 223 311 315 305 265 244 259 264 267 261 256 252 259 255 258 255 235
121 136 155 157 157 190 227 220 190 160 88 232 202 240 227 190 229 228 217 312 218 235 137 198 220 205 208 202 206 229 161 259 295 234 238 283 121 257 322 311 290 282 290 294 292 279 276 276 275 274 265 258 257 253
242 241 221 199 225 302 256 232 227 232 255 250 229 241 225 249 282 263 94 270 287 267 169 241 223 200 204 229 187 157 191 243 248 233 25 51 199 10 345 317 306 299 291 293 314 308 310 303 294 285 273 270 263 255
261 218 208 172 111 53 55 154 202 208 252 241 236 251 250 266 260 237 211 232 243 258 209 245 248 236 211 164 167 164 212 230 259 79 10 55 18 29 356 324 315 314 311 308 307 303 299 297 295 295 292 283 273 269
225 210 194 208 238 327 4 105 208 231 244 237 237 235 260 284 288 289 286 278 270 266 267 215 259 335 60 36 45 140 230 264 302 21 45 51 50 1 345 337 330 322 321 319 314 311 302 300 308 301 303 299 290 267
190 190 201 224 270 322 301 215 237 245 241 245 255 261 257 256 274 278 274 233 273 256 251 276 75 57 111 167 203 235 251 287 334 12 71 59 38 31 349 342 341 338 335 331 327 318 306 303 307 309 302 293 277 249
183 166 198 215 255 300 251 234 220 260 240 260 263 262 260 264 260 267 277 262 180 254 192 108 114 172 208 216 226 234 296 325 66 144 104 74 19 2 342 344 337 0 343 334 330 332 341 339 342 334 331 316 245 199
238 259 294 259 234 226 247 229 224 261 270 304 258 264 260 260 261 253 234 180 177 171 155 166 192 217 211 183 205 248 315 12 331 177 181 156 341 203 56 345 348 322 327 343 343 336 337 341 7 29 50 87 118 114
308 214 219 232 221 228 265 256 233 252 275 272 267 259 263 257 241 249 220 177 188 205 173 207 203 179 190 198 245 147 28 331 345 338 350 47 49 13 14 352 344 357 352 357 346 337 6 21 65 66 71 65 103 119
258 223 208 246 231 237 255 237 255 307 277 263 281 267 265 239 217 225 182 135 180 147 162 166 235 197 172 178 144 130 122 69 36 61 119 131 139 85 41 16 22 34 21 20 57 66 75 62 95 93 76 72 52 58
245 257 238 241 246 237 263 239 252 247 240 269 249 249 149 261 88 154 64 95 140 157 158 136 106 125 132 135 127 125 124 130 119 115 127 104 103 90 71 53 43 61 51 60 59 63 63 84 65 67 80 87 81 83
199 221 236 233 214 252 254 235 232 246 250 264 250 264 174 167 186 176 82 65 103 136 151 137 126 139 140 152 157 143 142 135 129 135 136 130 113 100 89 79 59 53 73 65 71 63 82 65 46 51 46 52 39 41
232 231 213 239 241 249 232 241 237 238 256 259 250 337 196 213 226 135 138 156 158 157 162 159 160 194 193 135 140 151 153 165 144 141 140 132 121 130 119 83 55 40 63 63 82 77 63 55 43 39 26 17 19 20
230 210 202 225 205 209 249 277 24 277 275 313 30 34 33 39 14 218 143 158 165 168 179 195 202 178 159 163 155 153 151 149 147 144 146 155 167 171 148 142 134 85 50 57 52 52 55 41 33 24 31 38 30 13
244 233 212 237 274 297 282 275 288 296 292 12 54 273 133 163 213 82 125 160 161 180 179 173 168 168 158 151 144 142 140 144 147 159 158 153 156 153 201 159 111 115 87 66 69 69 61 49 35 28 31 21 10 15
235 262 247 238 225 243 250 274 284 266 243 19 318 272 263 152 93 168 142 159 155 155 157 158 159 159 158 157 152 145 137 134 135 137 142 150 158 173 162 154 175 161 132 155 104 64 61 45 30 37 38 34 34 31
236 231 236 255 259 256 257 249 250 281 67 323 298 204 183 111 159 142 150 154 154 155 157 156 153 156 156 159 159 159 155 147 141 154 182 169 178 180 178 178 151 139 142 119 209 98 193 76 106 78 52 39 37 47
238 236 238 242 249 242 242 248 289 305 277 303 300 159 159 143 134 156 161 165 167 168 168 169 170 171 171 173 175 180 186 187 188 185 198 204 189 190 183 184 185 180 174 164 151 99 54 166 344 350 358 347 23 21
237 227 237 243 256 249 249 265 258 256 259 252 242 181 185 151 166 177 182 183 183 184 181 181 185 191 188 190 192 194 203 207 208 211 194 188 182 180 181 182 183 183 184 191 197 232 274 321 318 338 6 49 49 22
226 231 237 245 255 209 246 256 258 243 232 237 228 204 181 190 182 177 195 197 200 205 208 211 204 205 213 213 210 212 215 210 208 204 198 185 189 186 186 181 183 186 188 192 199 235 257 272 294 309 296 275 341 356
215 226 224 245 262 255 230 230 248 227 214 218 222 203 195 197 158 154 181 198 210 223 227 222 215 215 217 220 220 217 212 210 210 203 200 195 193 191 186 194 198 201 204 208 219 237 265 283 286 285 271 270 298 323